Regional Weather Roundup
Issued by NWS Little Rock, AR

Home | Current Version | Previous Version | Text Only | Print | Product List | Glossary Off
Versions: 1 2 3 4 5 6 7 8 9 10 11 12 13 14 15 16 17 18 19 20 21 22 23 24 25 26 27 28 29 30 31 32 33 34 35 36 37 38 39 40 41 42 43 44 45 46 47 48 49 50

000
ASUS44 KLZK 110005
RWRLZK

WEATHER ROUNDUP FOR ARKANSAS
NATIONAL WEATHER SERVICE LITTLE ROCK AR
600 PM CST SUN DEC 10 2017

NOTE: "FAIR" INDICATES FEW OR NO CLOUDS BELOW 12,000 FEET WITH NO
SIGNIFICANT WEATHER AND/OR OBSTRUCTIONS TO VISIBILITY.

ARZ001-003-010-029-110100-
NORTHWEST ARKANSAS

CITY           SKY/WX    TMP DP  RH WIND       PRES   REMARKS
FAYETTEVILLE   CLEAR     48  23  37 SW5       30.20S
6HR MIN TEMP:  48; 6HR MAX TEMP:  60;

FORT SMITH     CLEAR     54  23  30 SW3       30.21R
6HR MIN TEMP:  47; 6HR MAX TEMP:  63;

HARRISON       CLEAR     51  22  31 W7        30.17R
6HR MIN TEMP:  50; 6HR MAX TEMP:  62;

BENTONVILLE    CLEAR     49  24  37 SW6       30.21R
6HR MIN TEMP:  49; 6HR MAX TEMP:  57;

ROGERS         CLEAR     50  24  36 SW6       30.19R
6HR MIN TEMP:  49; 6HR MAX TEMP:  57;

SILOAM SPGS    CLEAR     49  23  36 SW5       30.21R
6HR MIN TEMP:  49; 6HR MAX TEMP:  58;

HIGHFILL       CLEAR     49  23  36 SW6       30.20R
6HR MIN TEMP:  48; 6HR MAX TEMP:  58;

SPRINGDALE     CLEAR     52  23  32 W5        30.21R
$$

ARZ004-005-016-110100-
NORTH CENTRAL ARKANSAS

CITY           SKY/WX    TMP DP  RH WIND       PRES   REMARKS
BATESVILLE     CLEAR     54  27  35 W7        30.14R
6HR MIN TEMP:  53; 6HR MAX TEMP:  61;

FLIPPIN        CLEAR     54  22  28 CALM      30.16R
6HR MIN TEMP:  54; 6HR MAX TEMP:  64;

MTN HOME       CLEAR     53  26  35 VRB6      30.14R
6HR MIN TEMP:  53; 6HR MAX TEMP:  61;

$$

ARZ040-041-110100-
WEST CENTRAL ARKANSAS

CITY           SKY/WX    TMP DP  RH WIND       PRES   REMARKS
MENA           CLEAR     61  25  25 SW5       30.22R
MOUNT IDA      CLEAR     56  26  31 CALM      30.18S
6HR MIN TEMP:  56; 6HR MAX TEMP:  69;

$$

ARZ009-017-025-026-028-110100-
NORTHEAST ARKANSAS

CITY           SKY/WX    TMP DP  RH WIND       PRES   REMARKS
JONESBORO      CLEAR     49  35  58 SW9       30.13R
6HR MIN TEMP:  49; 6HR MAX TEMP:  56;

NEWPORT        CLEAR     45  32  60 SW10      30.14R
6HR MIN TEMP:  45; 6HR MAX TEMP:  61;

WALNUT RIDGE   CLEAR     45  33  63 SW12      30.12R
6HR MIN TEMP:  45; 6HR MAX TEMP:  60;

BLYTHEVILLE    CLEAR     46  34  62 SW13      30.14R
6HR MIN TEMP:  46; 6HR MAX TEMP:  53;

$$

ARZ022-023-033-042-044-110100-
CENTRAL ARKANSAS

CITY           SKY/WX    TMP DP  RH WIND       PRES   REMARKS
LITTLE ROCK    CLEAR     54  28  36 SW8       30.18R
6HR MIN TEMP:  54; 6HR MAX TEMP:  62;

N LITTLE ROCK    N/A     56  30  36 SW5       30.21R
6HR MIN TEMP:  55; 6HR MAX TEMP:  64;

JACKSONVILLE   CLEAR     50  27  41 SW8       30.15S
6HR MIN TEMP:  50; 6HR MAX TEMP:  65;

SEARCY         CLEAR     53  30  41 SW7       30.16R
6HR MIN TEMP:  51; 6HR MAX TEMP:  62;

HOT SPRINGS    CLEAR     58  27  30 W8        30.19F
6HR MIN TEMP:  58; 6HR MAX TEMP:  64;

RUSSELLVILLE   CLEAR     53  25  33 NW5       30.17R
6HR MIN TEMP:  51; 6HR MAX TEMP:  62;

CLINTON        FAIR      50  27  40 W5        30.16R
$$

ARZ036-110100-
EAST ARKANSAS

CITY           SKY/WX    TMP DP  RH WIND       PRES   REMARKS
WEST MEMPHIS   CLEAR     43  33  68 S9        30.16S
6HR MIN TEMP:  43; 6HR MAX TEMP:  53; 6HR PCP: TRACE;

$$

ARZ050-053-066-070-073-110100-
SOUTHWEST ARKANSAS

CITY           SKY/WX    TMP DP  RH WIND       PRES   REMARKS
ARKADELPHIA    FAIR      49  29  46 SW5       30.23R
6HR MIN TEMP:  49; 6HR MAX TEMP:  64;

CAMDEN         CLEAR     52  27  37 CALM      30.24R
TEXARKANA      CLEAR     54  28  36 SW7       30.25R
6HR MIN TEMP:  54; 6HR MAX TEMP:  64;

EL DORADO      CLEAR     51  33  50 S3        30.26R
6HR MIN TEMP:  50; 6HR MAX TEMP:  63;

DE QUEEN       CLEAR     49  30  48 CALM      30.22R
6HR MIN TEMP:  49; 6HR MAX TEMP:  68;

$$

ARZ056-057-069-110100-
SOUTHEAST ARKANSAS

CITY           SKY/WX    TMP DP  RH WIND       PRES   REMARKS
PINE BLUFF     CLEAR     53  30  41 SW7       30.21S
6HR MIN TEMP:  53; 6HR MAX TEMP:  61;

STUTTGART      CLEAR     47  32  56 SW9       30.19R
6HR MIN TEMP:  47; 6HR MAX TEMP:  60;

MONTICELLO     CLEAR     54  29  38 SW5       30.24R
6HR MIN TEMP:  53; 6HR MAX TEMP:  61;


$$





USA.gov is the U.S. government's official web portal to all federal, state and local government web resources and services.